Date,TemperatureHighF,TemperatureAvgF,TemperatureLowF,DewpointHighF,DewpointAvgF,DewpointLowF,HumidityHigh,HumidityAvg,HumidityLow,PressureMaxIn,PressureMinIn,WindSpeedMaxMPH,WindSpeedAvgMPH,GustSpeedMaxMPH,PrecipitationSumIn
2013-10-1,77.5,60.6,46.2,61.9,50.4,39.6,90,71,40,29.88,29.66,7,3,15,0.00
2013-10-2,71.4,53.8,40.6,51.2,42.5,38.2,92,70,30,30.05,29.88,3,1,6,0.00
2013-10-3,65.2,55.0,49.2,54.9,50.4,45.6,96,85,68,30.02,29.91,6,2,9,0.18
2013-10-4,59.0,54.6,51.9,53.5,51.6,49.6,94,90,81,30.10,29.95,6,2,10,0.04
2013-10-5,55.4,52.4,50.8,54.8,51.2,49.7,98,96,89,30.09,29.75,6,3,10,0.96
2013-10-6,64.4,57.1,49.1,59.6,54.4,46.6,98,91,70,29.74,29.58,7,2,9,0.08
2013-10-7,59.1,48.3,34.5,47.5,42.3,33.5,96,81,53,30.05,29.62,8,3,15,0.02
2013-10-8,68.4,52.3,32.9,53.9,44.9,31.9,97,79,49,30.14,30.02,9,3,13,0.00
2013-10-9,71.9,58.1,44.7,54.6,49.9,43.6,97,76,49,30.13,30.07,8,3,11,0.01
2013-10-10,69.6,52.3,36.6,52.3,45.3,35.6,97,80,45,30.16,30.06,7,1,9,0.00
2013-10-11,69.5,53.9,40.4,58.2,49.0,39.4,98,85,63,30.10,29.94,8,2,13,0.01
2013-10-12,64.2,56.0,48.3,61.2,52.5,42.5,95,88,70,30.01,29.81,5,2,12,0.55
2013-10-13,55.9,46.3,32.8,45.5,40.5,31.8,96,81,55,30.42,30.01,5,1,10,0.00
2013-10-14,57.2,41.8,29.0,43.7,35.7,28.0,97,81,50,30.49,30.25,4,1,7,0.00
2013-10-15,52.2,47.4,36.9,51.6,46.3,35.6,98,96,92,30.25,29.67,6,1,9,0.32
2013-10-16,51.8,45.3,31.7,51.3,43.2,30.7,98,92,81,29.90,29.64,7,2,10,0.05
2013-10-17,53.5,38.4,26.4,42.8,35.1,25.4,97,89,60,29.89,29.74,3,0,5,0.01
2013-10-18,46.8,40.8,35.0,45.2,39.6,34.2,98,95,91,29.88,29.76,4,1,8,0.22
2013-10-19,48.7,37.2,29.3,40.2,34.0,28.6,98,89,62,29.85,29.66,6,1,9,0.00
2013-10-20,44.5,37.2,29.8,39.0,34.4,29.1,97,90,67,29.82,29.66,6,1,7,0.10
2013-10-21,38.7,35.1,28.8,36.6,30.2,23.2,97,83,65,29.79,29.65,7,4,12,0.00
2013-10-22,44.0,35.3,27.2,34.2,29.9,24.2,91,81,60,29.95,29.70,8,4,17,0.00
2013-10-23,41.4,34.3,28.1,34.2,28.5,25.6,93,80,59,29.95,29.89,8,2,11,0.01
2013-10-24,44.1,34.3,28.3,31.8,29.2,26.8,95,82,57,30.22,29.94,8,3,12,0.00
2013-10-25,46.6,35.9,25.5,37.8,28.3,24.3,96,76,54,30.26,29.62,8,3,10,0.03
2013-10-26,47.1,40.0,33.1,39.9,31.9,27.3,90,73,58,30.00,29.61,10,4,21,0.03
2013-10-27,48.1,39.7,33.0,36.7,31.9,28.3,90,74,52,30.15,29.80,9,3,17,0.00
2013-10-28,40.3,31.9,20.8,30.7,23.4,18.6,92,72,46,30.51,30.15,7,3,16,0.00
2013-10-29,35.9,27.7,18.0,31.4,24.7,16.1,96,89,65,30.52,30.23,2,0,3,0.01
2013-10-30,48.3,39.2,32.4,47.8,38.4,31.4,98,97,96,30.24,29.76,5,0,11,0.10
2013-10-31,52.2,49.5,46.4,51.7,49.0,45.9,98,98,98,29.75,29.11,6,1,7,0.69